Wind_Speed
28 28 28 28 29 29 30 30 31 31 31 31 31 31 31 31 31 31 31 30 30 30 30 30 29 29 29 29 29 29 29 29 30 30 30 30 30 31 32 31 31 30 30 29 27 24 23 24 25 26 26 26 27 27 29 29 30 32 31 30 26 23 20 16 23 27 29 32 33 28 16 12 20 23 29 32 33 36 34 38 37 28 26 28 28 26 21 20
29 29 29 28 29 29 29 29 30 30 30 31 31 31 31 31 31 30 30 30 29 29 29 29 29 28 28 28 28 28 29 29 29 29 29 29 30 30 30 30 30 29 29 27 25 23 22 23 24 24 24 25 27 28 29 30 31 32 31 30 25 20 15 20 27 28 30 32 33 31 19 11 17 23 30 32 33 37 36 39 36 27 26 25 24 24 21 21
30 29 29 29 28 28 29 29 29 29 30 30 30 30 30 30 30 30 29 29 29 29 28 28 28 28 27 28 28 28 28 29 29 28 28 28 29 29 29 29 29 28 27 25 23 22 22 22 22 22 23 25 26 28 29 30 31 31 31 29 24 18 17 24 30 30 33 33 32 31 25 18 15 21 29 32 34 36 38 36 29 25 25 21 17 18 20 21
30 30 29 29 29 29 29 29 29 29 29 30 30 30 30 30 30 29 29 29 28 28 28 27 27 27 27 27 27 27 28 28 28 27 27 28 28 28 29 28 27 27 25 23 22 21 21 20 20 22 23 24 26 28 28 29 30 30 31 27 23 21 22 28 31 32 34 34 34 30 25 19 16 22 28 32 34 36 39 33 24 24 25 21 15 16 20 21
29 30 30 30 29 29 29 29 29 29 29 30 30 30 30 30 30 29 29 29 28 27 27 26 26 26 26 27 27 27 27 27 27 27 27 27 28 28 28 28 26 25 23 21 21 21 20 19 20 21 22 24 26 27 26 28 29 30 30 26 24 23 25 32 32 34 35 34 37 32 20 13 17 25 29 34 36 38 38 28 23 25 25 23 19 19 22 22
28 29 30 30 30 30 30 30 30 30 30 30 30 30 31 30 30 30 29 28 28 27 26 26 26 26 26 26 26 26 26 26 26 26 26 26 27 28 28 27 25 24 22 20 20 19 19 19 20 20 22 24 26 25 26 28 30 31 30 27 26 23 27 35 35 36 35 33 36 33 21 14 18 25 30 35 37 38 35 27 24 24 22 22 21 22 23 22
27 28 29 30 30 31 31 31 31 31 31 31 31 31 31 31 31 30 29 28 28 27 26 26 26 26 25 25 26 26 26 26 25 24 25 26 27 28 27 26 24 22 21 20 19 18 19 19 19 20 22 24 25 25 26 29 31 31 29 28 27 24 29 36 37 37 35 32 34 33 26 21 20 25 31 33 34 35 34 30 27 23 20 21 22 22 22 21
27 28 28 29 30 31 31 32 32 32 32 32 32 32 32 32 31 31 30 29 28 27 27 26 26 26 25 25 25 25 26 25 24 23 23 25 26 27 26 25 23 21 20 19 18 19 19 18 18 20 21 23 25 26 28 30 32 31 29 28 27 26 31 36 39 38 35 33 34 34 30 27 25 28 33 35 35 34 33 31 28 24 21 21 23 22 21 21
28 28 29 29 30 31 32 32 33 33 33 34 33 33 33 33 32 32 31 30 29 28 27 26 26 25 25 25 25 25 25 25 24 23 23 24 25 26 27 26 24 21 19 18 18 19 18 18 20 21 22 24 27 27 29 31 32 31 29 29 29 28 32 38 40 39 36 34 35 34 32 32 32 34 36 36 35 32 31 31 28 26 22 22 25 24 23 23
28 29 29 30 30 31 32 33 33 34 34 35 35 35 34 34 34 33 32 31 29 28 27 26 26 25 25 25 24 25 25 24 24 23 22 23 23 25 26 26 24 22 20 19 18 18 19 21 22 23 24 26 27 27 29 31 30 30 30 31 31 31 34 40 42 40 37 36 36 37 36 35 34 33 33 31 29 28 30 33 31 27 23 23 24 23 24 24
28 28 29 29 30 31 32 33 33 34 35 36 36 36 36 35 35 34 33 31 30 29 28 27 26 25 25 24 25 25 24 23 22 22 22 22 23 24 25 25 24 22 21 20 20 20 21 22 23 25 24 24 26 28 29 30 30 31 32 32 32 31 33 40 44 42 39 38 38 40 39 38 35 31 29 27 26 28 30 32 29 25 23 22 21 21 22 23
26 27 28 29 29 30 31 32 33 34 35 36 37 37 37 37 36 35 34 32 31 29 28 27 26 25 24 24 25 24 22 22 22 22 22 23 23 23 25 25 24 23 22 21 21 21 22 22 24 24 23 24 26 28 29 29 30 31 31 31 30 30 32 38 44 45 43 41 40 42 41 40 35 25 21 25 27 27 27 28 26 23 22 21 20 20 20 22
26 27 27 28 29 30 31 32 33 34 35 36 37 37 38 37 37 36 35 33 32 30 29 27 25 25 24 24 25 23 22 22 21 21 22 22 22 23 24 25 25 25 24 24 23 23 23 23 24 23 23 25 25 26 27 28 30 30 30 30 29 30 30 32 40 45 46 45 42 42 42 42 33 18 14 21 27 27 26 26 24 22 22 20 20 20 22 22
27 27 27 28 29 30 31 32 33 34 35 36 37 37 38 38 37 37 35 34 32 30 29 27 26 25 23 24 25 23 22 23 21 21 21 20 21 23 25 25 26 26 26 26 26 25 25 25 24 23 23 24 24 25 26 27 28 28 30 29 28 29 26 26 33 40 45 45 44 43 41 39 32 21 16 19 26 28 26 26 25 23 22 19 18 21 24 25
27 27 27 28 29 29 30 31 32 34 35 36 37 37 38 38 38 37 36 34 33 31 29 27 26 25 24 24 24 23 23 22 21 21 20 18 19 23 25 25 26 26 27 28 27 27 27 27 26 24 23 23 24 26 26 27 27 26 27 27 26 26 23 23 28 33 39 41 42 43 40 36 31 25 19 19 26 29 27 27 26 24 23 19 18 19 21 24
27 27 27 28 29 29 30 31 32 33 34 36 37 37 38 37 38 37 36 35 34 32 30 27 26 25 24 23 23 23 23 22 22 21 19 17 18 22 25 25 26 27 28 28 28 28 28 28 27 26 25 25 24 25 26 27 26 25 25 24 24 25 23 22 24 27 30 33 37 40 40 37 30 21 17 20 26 29 28 27 26 24 22 18 17 17 16 19
26 27 27 28 29 29 30 31 32 33 34 35 36 37 38 38 38 37 36 35 34 33 30 28 27 26 24 22 22 24 23 22 21 20 19 18 19 22 25 26 27 28 27 27 27 26 28 29 29 27 26 26 25 24 25 26 24 22 23 22 22 23 23 23 22 23 25 28 31 35 38 36 28 20 17 20 25 28 29 28 26 23 19 16 17 18 16 18
26 26 27 28 28 29 30 30 31 32 33 34 35 36 37 37 37 37 36 35 34 33 31 29 27 26 24 22 23 24 23 21 20 20 20 19 20 21 24 27 28 28 27 26 25 24 26 28 29 29 27 26 25 24 24 21 19 20 22 22 21 22 25 25 23 21 22 24 26 30 34 31 25 20 18 20 24 27 29 28 25 21 18 18 20 20 19 22
25 26 26 27 28 28 29 29 30 31 32 33 34 35 36 37 37 36 36 34 34 33 32 30 28 26 24 23 24 23 22 22 20 19 20 19 20 21 23 25 27 27 26 24 23 24 25 26 28 29 26 24 24 25 23 19 18 21 22 23 22 23 25 25 24 22 21 21 22 25 28 24 18 17 19 20 22 27 29 28 26 23 21 23 24 22 22 25
25 25 26 26 27 27 27 28 28 30 30 32 33 33 35 36 36 37 36 34 34 34 33 30 28 26 24 24 24 23 23 22 19 18 19 19 20 21 21 23 26 26 24 22 23 24 24 25 25 24 23 23 24 24 23 21 21 22 23 23 22 23 23 21 21 22 21 23 24 23 21 17 13 12 16 21 22 24 28 29 29 27 24 25 24 22 23 22
24 25 25 25 26 26 27 27 27 28 29 30 32 33 33 34 35 36 35 34 33 34 33 31 29 24 22 25 25 23 23 20 16 16 18 19 19 20 20 22 24 24 22 22 23 24 24 22 19 19 21 23 24 24 24 23 22 23 23 22 22 23 21 18 19 20 19 24 25 22 21 18 17 13 10 18 23 23 27 30 30 28 25 25 22 22 24 21
24 24 24 24 25 25 26 27 27 28 28 29 30 31 32 32 33 33 33 32 30 32 33 31 29 24 22 26 26 24 22 18 15 16 17 18 19 20 20 21 22 22 22 23 23 23 20 16 16 19 22 23 23 22 23 24 24 24 23 22 22 22 19 18 21 20 17 23 23 18 19 16 17 13 7 16 25 25 27 28 26 27 26 23 21 23 26 25
24 24 24 24 24 24 25 25 26 27 28 28 28 29 29 30 31 31 31 31 27 30 33 30 30 26 21 23 26 25 21 17 15 15 17 17 18 22 22 21 22 23 23 23 22 20 17 16 18 22 23 22 22 22 22 23 24 24 22 23 22 20 18 17 21 20 18 23 19 13 15 12 13 14 10 15 26 28 28 27 26 28 27 23 24 26 27 28
24 24 25 24 25 24 24 25 25 26 26 26 27 26 27 28 29 29 30 30 27 26 30 31 30 26 20 22 26 24 19 17 15 15 17 17 18 22 22 20 22 22 22 21 21 18 17 19 20 21 21 22 21 21 21 21 22 22 22 23 20 18 18 18 19 19 20 24 18 13 17 16 15 17 14 15 25 30 29 27 27 30 28 25 26 28 28 28
24 25 25 25 25 25 25 26 26 25 24 25 25 25 25 26 28 28 28 30 27 22 26 31 28 24 22 25 25 23 20 17 15 16 18 17 18 21 22 21 22 21 20 20 20 18 18 20 19 19 20 21 21 20 19 20 21 21 21 20 18 18 21 21 19 18 20 22 18 14 17 19 18 19 18 15 22 31 31 27 26 28 27 25 27 28 28 28
24 25 25 25 25 25 26 26 26 26 25 24 24 23 24 25 26 27 26 27 24 18 22 28 26 23 23 24 24 23 21 16 16 20 18 16 18 21 21 21 21 21 20 21 20 18 19 20 19 19 19 19 20 20 20 20 21 20 19 17 16 21 25 24 21 20 18 18 18 15 15 18 19 21 20 17 21 29 32 30 29 29 28 27 27 29 28 29
24 25 25 25 25 26 27 27 27 26 25 25 24 24 25 25 24 23 24 24 21 16 17 21 22 20 21 24 24 21 19 17 19 21 16 14 18 21 21 20 20 20 21 22 20 19 20 20 18 19 19 19 19 20 20 21 20 17 16 15 17 24 28 25 24 24 22 20 21 20 19 20 22 23 22 20 21 26 30 34 35 33 30 29 28 28 29 30
24 25 25 24 25 26 27 26 26 26 26 25 25 26 26 24 23 22 23 22 18 14 14 16 18 18 20 22 20 17 17 17 18 19 16 15 18 19 19 18 18 20 22 22 19 18 19 20 19 18 19 19 19 20 20 19 17 14 15 19 21 28 31 26 25 26 26 24 23 23 25 25 25 24 21 21 22 25 28 32 34 33 31 29 29 29 30 30
23 24 24 23 23 24 25 25 25 26 25 25 26 26 26 25 23 23 23 21 16 13 11 12 16 18 19 19 17 17 15 12 14 18 17 16 18 19 18 18 19 21 22 21 19 18 19 20 20 21 20 19 19 20 18 15 14 13 16 22 25 31 33 27 25 24 25 27 25 24 27 28 28 26 24 24 25 26 29 32 32 32 31 29 28 28 29 30
21 22 23 22 21 22 23 23 24 25 23 23 25 25 25 25 25 25 24 20 17 14 11 9 11 14 17 18 17 17 17 15 17 20 17 17 19 19 18 19 21 22 22 21 19 18 19 20 22 23 20 18 17 16 14 12 10 12 18 21 24 32 34 29 25 24 25 29 28 25 25 28 29 29 29 30 31 33 34 36 36 34 31 29 28 29 29 28
19 21 21 21 21 21 21 22 23 24 22 22 23 24 24 24 26 26 22 18 16 16 14 13 14 14 17 19 17 17 20 20 21 21 18 17 19 19 19 20 21 22 22 21 19 18 19 20 22 22 20 19 17 16 15 12 10 13 19 20 24 31 34 32 29 27 27 29 27 23 22 25 25 25 29 31 32 35 35 35 36 33 30 29 29 30 28 25
18 20 20 21 20 20 20 20 22 23 22 22 22 22 23 24 25 22 18 16 16 16 16 18 20 19 18 19 18 18 19 20 21 21 18 16 18 17 18 20 21 21 21 19 17 18 19 20 20 20 19 17 15 14 15 13 13 16 20 21 25 31 36 36 32 29 29 28 27 23 21 22 21 19 23 27 28 29 29 29 30 28 28 28 29 30 27 25
17 18 19 19 20 19 19 19 20 22 21 21 21 21 23 23 20 16 15 16 15 16 17 19 21 21 19 19 18 18 18 17 19 20 18 17 17 16 17 19 20 19 18 18 18 18 18 20 20 20 19 16 12 12 14 14 16 18 20 23 24 29 36 39 36 33 32 30 29 27 23 23 24 20 20 24 27 26 26 27 27 27 30 31 30 30 27 24
16 17 17 18 19 19 18 18 19 20 20 20 20 21 22 20 16 14 14 13 15 18 21 21 20 20 21 21 20 19 18 18 20 20 19 19 17 17 18 18 18 18 17 19 19 18 18 19 19 18 17 15 10 9 11 14 17 19 21 23 24 26 31 35 37 37 36 33 29 28 27 27 28 26 22 22 26 27 27 27 27 27 28 27 26 26 25 21
16 17 16 17 18 19 19 18 18 20 20 20 20 20 18 16 15 16 14 14 19 23 24 23 22 21 22 22 20 19 19 20 22 23 22 22 18 16 16 17 18 18 19 20 20 19 19 18 17 15 15 14 10 8 9 13 17 19 20 22 22 23 26 29 32 34 36 34 28 27 31 32 32 30 26 23 24 26 27 27 27 25 23 22 23 22 20 15
15 15 16 17 18 19 19 19 19 20 21 21 21 19 17 16 17 17 16 18 23 26 26 24 23 23 22 21 20 18 19 21 23 25 26 24 18 16 17 18 19 19 19 19 18 20 20 18 16 15 15 14 11 9 10 13 16 18 20 20 18 18 22 25 27 29 30 29 26 26 30 33 33 29 25 23 23 24 25 24 25 24 22 22 21 19 17 13
14 14 15 16 17 18 19 19 20 20 21 22 22 21 20 19 19 19 19 21 25 28 29 27 25 25 23 22 21 17 17 21 22 25 27 25 20 19 19 20 21 21 20 19 19 20 20 19 17 16 17 16 13 11 11 13 17 18 18 18 16 16 20 25 26 26 26 25 24 25 27 29 29 26 24 22 21 21 22 23 23 23 22 21 18 16 17 17
13 13 15 16 16 17 18 18 19 20 21 22 22 23 22 22 22 22 21 23 26 30 32 31 29 28 26 25 24 20 18 19 19 22 26 27 24 21 21 23 24 23 23 23 22 21 21 21 18 18 19 17 16 15 14 15 19 20 20 20 19 18 20 24 25 25 24 25 25 24 25 27 27 25 23 22 22 22 22 22 22 21 20 19 17 16 17 18
11 12 13 15 15 17 18 19 20 20 21 22 23 23 23 23 24 24 23 24 27 30 34 35 33 32 30 27 26 25 22 20 21 22 26 28 27 24 23 25 25 25 25 25 24 24 24 23 21 20 20 19 19 19 19 19 21 22 23 23 22 22 21 23 25 24 22 23 25 25 25 27 27 25 24 23 24 23 22 22 22 22 21 20 20 21 21 20
11 12 13 15 16 18 19 20 21 22 23 24 24 24 24 24 25 26 27 27 29 30 33 37 37 36 34 31 29 28 26 25 26 25 24 26 28 27 26 26 26 27 28 27 26 25 26 25 24 23 22 21 23 24 23 24 24 25 26 25 24 24 24 23 23 24 23 23 23 24 25 26 27 26 25 25 24 23 21 19 19 21 22 22 23 24 23 22
12 13 15 16 18 19 20 20 21 22 23 25 26 26 25 25 24 26 28 29 30 31 32 36 38 38 37 35 33 31 29 29 28 27 25 23 24 26 28 30 30 29 30 30 29 27 28 29 26 25 24 24 26 26 26 27 27 27 28 28 26 25 24 24 24 25 25 25 24 23 23 25 26 26 26 26 25 24 22 20 18 19 20 20 20 20 20 22
13 15 16 18 19 18 18 18 19 20 21 22 25 27 28 27 25 24 26 28 29 31 32 34 37 39 38 38 37 35 34 33 30 27 25 22 21 22 24 27 29 30 30 31 32 30 30 30 29 27 27 28 30 29 27 28 30 30 30 30 29 26 24 25 26 27 27 26 26 24 23 25 26 26 27 26 25 24 23 22 20 19 19 19 19 18 17 17
13 16 18 19 18 16 15 17 19 19 20 21 22 24 27 29 28 26 27 28 28 32 35 36 39 40 40 39 39 37 36 35 32 28 25 23 22 22 22 23 26 28 28 29 32 32 31 31 31 30 29 30 32 32 30 29 30 32 32 32 32 30 27 26 26 27 28 27 27 25 24 24 23 25 26 25 25 25 24 23 22 22 23 23 22 20 17 15
14 17 19 19 17 15 15 18 20 21 22 22 21 21 23 26 28 28 29 30 30 33 37 39 41 42 41 41 38 34 34 35 32 27 25 23 21 22 23 22 24 26 26 27 31 32 32 32 31 31 32 32 33 33 33 32 31 33 34 34 34 33 32 30 27 26 27 27 28 28 28 26 24 24 25 25 24 23 23 23 22 22 24 24 22 20 19 18
14 17 18 17 14 14 15 17 20 22 23 23 22 21 20 22 26 28 28 29 31 34 37 41 42 43 43 41 37 32 32 35 33 29 26 23 21 22 24 24 24 26 26 27 30 33 34 34 32 32 34 35 36 35 34 32 32 34 35 35 35 35 34 33 31 29 28 28 28 29 29 28 26 27 28 26 24 22 21 22 21 19 20 20 20 20 19 19
15 17 16 13 12 13 14 17 20 21 20 20 20 20 19 18 22 26 26 27 31 34 37 41 42 44 43 41 37 34 33 34 35 32 27 23 21 22 25 25 25 26 26 26 30 34 36 36 34 34 35 36 38 38 37 35 33 34 35 36 37 37 35 34 33 32 32 31 30 30 29 27 26 27 28 27 25 23 22 21 21 20 19 19 19 20 20 19
15 16 15 11 10 10 13 17 20 18 16 15 15 15 14 14 19 25 26 28 31 33 35 38 39 42 43 41 39 37 37 36 35 32 27 23 22 21 21 21 21 23 23 24 27 31 33 35 36 37 38 39 39 40 41 39 36 35 35 37 39 39 37 35 33 32 32 32 31 30 29 27 26 27 28 25 22 20 19 19 22 24 23 21 19 19 18 17
14 16 14 11 9 10 13 17 18 16 13 12 11 10 9 8 14 22 25 27 29 29 30 32 34 36 40 41 40 39 40 39 36 34 29 22 21 21 19 17 17 18 19 21 25 27 28 31 35 39 42 42 41 40 41 41 40 39 37 36 38 39 39 37 36 34 33 32 31 29 29 29 28 29 29 26 23 21 18 18 19 19 20 20 20 19 17 15
12 15 14 12 11 11 12 16 16 14 11 8 5 5 6 7 10 17 22 24 25 24 24 25 26 29 34 39 40 38 39 39 37 35 32 25 21 20 19 17 16 15 15 17 20 24 26 28 30 36 44 46 43 41 39 39 41 42 40 37 35 35 35 36 36 36 36 35 33 30 29 29 29 30 30 28 27 26 23 21 19 17 18 19 19 18 15 13
12 14 15 14 12 10 11 15 15 12 8 3 2 3 0 4 6 11 17 19 20 20 21 21 20 23 28 34 38 38 38 39 36 34 32 28 22 19 18 17 16 15 15 15 16 18 22 23 23 26 33 39 42 42 40 38 38 39 41 40 38 36 34 34 34 35 37 37 35 33 32 30 29 29 29 27 26 25 25 24 24 24 24 24 23 19 16 13
12 13 15 15 12 8 9 13 13 11 7 2 1 3 3 3 4 7 12 15 17 18 20 20 19 20 23 27 33 37 37 38 37 34 31 28 25 21 19 18 18 18 16 15 14 16 17 18 18 17 21 28 34 37 38 39 36 35 36 37 38 38 36 35 35 35 36 37 36 34 35 34 32 29 28 26 25 24 24 23 23 23 23 23 23 23 21 19
10 12 14 15 13 8 8 11 12 9 6 2 3 3 2 3 4 7 10 11 12 13 17 20 19 19 20 22 29 35 36 35 36 35 33 31 30 27 23 19 20 21 21 19 16 16 16 17 17 14 15 23 28 26 27 30 31 29 29 29 30 32 33 34 34 33 33 36 37 37 37 37 36 33 31 31 30 28 27 27 27 27 26 25 24 25 24 22
Wind_Direction
260 260 261 261 261 261 260 259 259 259 259 259 259 259 260 260 261 263 265 267 269 270 271 272 272 273 273 273 274 274 274 275 275 276 278 279 279 279 279 279 279 278 276 275 271 266 260 256 252 249 247 241 239 237 237 237 236 239 240 238 234 231 230 202 193 205 209 208 208 203 192 229 247 248 246 244 248 251 251 257 261 262 264 268 269 268 259 250
260 259 260 260 261 261 260 260 259 259 259 259 259 259 260 260 261 263 265 266 268 269 270 271 271 272 272 272 273 273 273 273 274 275 276 277 278 278 278 277 277 276 275 274 270 266 259 256 252 248 245 239 237 235 235 235 235 237 237 236 229 222 217 193 191 204 207 204 208 207 192 211 251 256 248 245 249 250 251 255 258 261 262 266 269 262 254 250
261 261 261 261 261 261 261 260 260 259 259 259 259 259 260 260 262 263 265 266 267 268 269 270 271 271 272 272 272 272 272 272 273 274 275 276 277 277 276 276 275 274 274 272 268 265 260 256 251 245 241 236 235 235 234 233 234 236 235 234 225 211 201 191 191 198 204 205 206 206 197 198 233 255 248 245 249 252 254 256 259 262 260 265 265 252 248 248
262 262 262 261 261 261 261 261 260 260 259 259 259 259 259 261 262 263 265 266 267 268 269 270 270 271 272 272 272 271 271 271 271 273 275 275 275 275 275 274 273 272 271 269 265 262 258 253 246 241 238 234 234 234 233 233 235 235 235 232 221 210 193 184 187 196 204 205 204 202 201 205 229 246 245 244 248 253 256 258 266 267 260 256 244 234 241 245
263 263 262 262 262 262 262 261 261 260 260 259 259 259 259 260 261 263 264 265 266 267 268 270 270 271 271 271 271 270 270 270 270 272 274 274 274 274 273 272 271 269 268 265 261 258 255 249 242 238 235 234 234 234 233 233 234 234 234 229 220 212 191 180 185 196 202 204 207 206 200 213 237 241 240 240 244 250 254 260 267 268 262 251 236 229 236 242
264 263 263 263 262 262 262 262 261 261 260 259 259 258 259 259 260 261 262 264 265 267 268 269 270 270 270 270 269 268 268 268 269 271 271 271 270 270 270 269 268 266 263 260 257 255 252 247 241 237 233 233 233 233 233 233 233 232 231 226 220 211 189 184 189 197 201 203 209 209 198 204 236 244 240 239 243 248 253 256 257 265 266 253 243 239 237 239
264 264 264 264 263 263 263 262 262 261 260 259 258 258 258 258 259 260 261 263 265 266 267 267 268 268 268 268 267 267 266 267 268 268 267 267 267 267 267 265 263 261 258 254 252 250 248 246 241 236 232 232 233 232 232 233 233 230 229 225 219 209 189 188 195 198 202 204 208 210 202 200 223 243 242 241 246 249 253 252 250 258 265 257 249 246 241 239
266 266 265 265 265 265 265 264 263 262 261 260 259 259 258 258 258 259 260 261 262 264 264 266 266 267 267 266 265 265 265 266 267 266 265 265 265 265 263 260 257 255 252 249 246 244 246 244 239 236 234 234 233 231 231 232 232 230 228 226 221 210 193 192 198 200 204 207 208 211 207 201 211 229 236 240 243 246 252 254 252 253 257 256 249 245 243 241
264 265 265 265 265 265 265 265 264 263 262 261 260 259 258 258 257 257 258 258 260 261 262 263 264 265 265 264 264 264 264 265 266 267 267 266 264 262 259 256 252 249 244 241 239 239 240 238 236 234 232 232 231 230 231 232 233 231 228 225 221 212 198 195 200 203 207 211 213 214 213 211 216 227 235 240 243 246 252 256 256 252 254 256 247 242 240 240
262 263 264 265 265 265 265 265 264 263 262 260 259 258 257 256 256 255 255 256 257 258 259 260 262 264 263 263 262 262 264 265 267 268 268 266 262 258 256 252 249 245 239 236 234 233 234 234 234 233 230 230 231 231 232 233 235 234 230 226 220 212 202 198 201 203 208 215 218 219 220 222 227 234 241 248 250 249 251 253 253 250 253 255 249 241 237 237
261 262 263 264 264 264 265 265 264 263 262 260 259 257 256 255 254 253 253 254 255 255 257 258 260 261 261 262 261 262 264 265 266 266 265 263 259 255 251 246 243 240 237 234 232 230 232 233 234 234 232 231 232 233 233 232 233 234 233 229 224 217 208 202 203 204 208 215 221 224 226 228 233 240 248 255 252 246 246 249 249 248 248 249 246 240 236 235
262 263 263 264 264 264 265 265 265 264 263 261 259 257 256 254 253 252 251 251 252 253 254 256 257 259 260 260 260 262 264 263 263 264 264 262 259 256 249 242 237 235 235 233 232 232 232 234 234 234 234 233 232 234 234 234 233 234 235 233 230 225 215 208 207 207 211 216 222 228 230 232 236 238 242 250 250 245 242 246 248 246 244 243 241 236 234 234
265 265 265 266 266 266 266 265 265 264 263 262 260 258 256 254 253 251 250 249 249 250 251 253 255 257 258 258 260 261 261 261 262 263 262 261 258 254 248 239 233 231 231 233 233 233 234 236 237 236 236 235 235 236 237 238 237 236 238 235 232 229 222 215 213 211 214 218 222 230 233 235 236 228 230 245 251 250 244 243 246 243 243 244 240 234 232 234
266 266 267 268 268 268 267 267 266 266 264 263 261 259 257 255 253 251 250 248 247 248 249 251 253 255 255 257 260 261 261 261 263 264 263 263 258 253 247 236 230 228 229 232 233 233 235 237 238 238 238 237 237 237 236 238 238 237 239 238 235 233 225 220 220 218 218 220 224 231 237 240 238 238 250 251 249 251 247 243 243 242 241 241 241 238 236 237
267 267 269 269 269 270 269 269 268 268 267 265 263 260 258 256 254 252 251 248 247 247 247 249 250 252 254 255 259 260 261 261 263 264 264 261 252 250 248 235 228 228 229 232 234 234 235 237 238 239 240 240 238 237 236 237 237 236 238 240 240 239 231 223 224 224 224 226 229 236 243 247 246 246 254 250 243 246 247 243 243 242 240 239 239 239 242 243
268 270 270 271 271 271 271 270 270 270 269 268 265 263 260 257 255 253 252 250 247 246 246 247 248 250 252 254 257 259 260 262 263 265 266 258 242 240 243 236 227 228 230 233 236 236 236 237 237 238 240 241 240 239 238 239 238 238 239 239 240 242 237 230 228 229 228 229 232 239 247 250 249 244 240 239 239 241 244 243 244 243 244 243 237 238 242 242
270 271 272 272 272 272 272 272 272 271 270 269 267 265 262 259 257 254 252 251 249 247 245 245 247 249 250 251 255 257 259 261 263 265 264 256 242 232 234 233 228 227 230 234 238 238 237 236 236 237 240 242 242 240 240 240 240 243 243 240 240 241 239 233 230 231 230 229 230 236 244 248 249 243 231 232 235 238 242 244 245 246 248 249 246 247 243 235
271 272 272 272 273 273 273 273 272 272 271 269 268 266 264 261 259 256 253 251 250 248 245 244 245 247 249 250 251 254 258 260 262 264 262 255 245 233 228 228 227 227 230 235 238 239 238 237 236 236 238 241 243 242 243 242 242 244 243 239 236 237 237 232 227 225 227 230 230 233 242 247 250 246 231 227 232 236 241 243 244 244 246 254 259 256 242 231
270 271 272 272 272 273 272 272 272 271 270 269 268 266 265 263 260 257 254 252 252 250 247 244 244 246 249 249 248 251 255 258 261 264 265 259 250 239 227 225 226 226 229 233 237 240 240 239 237 235 236 243 245 244 243 242 241 240 239 238 234 234 235 235 234 229 224 225 227 231 239 243 243 239 227 222 228 234 240 241 239 236 241 253 257 252 238 231
270 271 271 272 272 272 271 271 270 270 269 268 267 266 265 264 262 259 255 253 252 251 248 245 244 245 248 248 248 250 251 255 260 264 264 259 252 243 231 225 225 225 227 231 235 239 241 241 241 237 237 242 243 242 239 239 239 238 239 239 239 241 239 240 239 231 223 222 225 224 225 218 200 204 215 215 221 232 237 239 238 234 238 248 250 249 245 243
270 270 271 272 271 271 270 270 270 269 268 267 266 265 265 264 263 261 258 254 253 252 249 246 244 244 248 249 248 247 248 251 256 261 259 254 250 243 234 228 224 224 227 230 234 239 241 243 244 239 237 239 240 240 237 237 239 239 241 240 242 245 243 240 228 215 215 222 224 217 209 195 174 174 202 211 214 223 231 238 243 243 242 246 248 251 256 261
271 271 272 272 271 271 271 270 270 269 268 267 267 267 267 266 265 264 261 256 255 254 251 248 246 242 243 249 250 248 250 251 250 254 253 247 245 242 234 228 223 221 224 229 234 239 244 247 243 237 236 236 237 239 238 237 239 241 244 244 243 244 244 239 216 203 217 224 217 210 208 193 173 178 203 212 212 216 226 235 244 252 253 250 252 254 259 266
272 272 272 272 272 272 272 271 270 269 269 269 269 268 268 267 265 263 261 257 254 253 252 250 246 241 240 248 252 249 249 252 249 249 252 244 236 237 234 225 221 222 224 230 235 240 246 242 236 234 234 236 236 236 236 237 240 243 246 247 245 244 242 227 206 204 223 222 208 203 217 204 183 201 220 210 208 212 221 229 235 246 252 250 251 253 256 263
272 272 273 273 272 273 272 271 270 269 269 269 269 268 268 267 264 262 259 255 251 249 251 249 245 243 241 242 248 252 253 252 248 245 249 245 234 234 234 226 222 224 227 233 236 237 240 237 235 235 235 235 234 234 235 236 240 242 245 247 246 239 225 205 199 209 218 216 209 212 222 214 199 214 227 212 207 210 219 230 235 240 244 245 247 248 251 262
272 272 272 273 273 272 271 270 269 269 269 269 268 268 267 266 264 262 259 255 252 248 247 247 245 244 243 242 247 254 255 251 247 242 240 240 237 234 233 226 222 225 228 233 235 233 235 237 235 234 236 237 235 234 234 234 237 239 241 244 239 221 201 190 196 205 210 212 207 206 219 217 206 214 225 218 211 213 219 231 237 238 240 241 244 246 252 262
273 272 272 272 273 272 270 269 268 268 268 268 269 269 266 265 263 264 263 259 257 252 246 246 244 241 241 244 246 249 251 249 245 242 236 234 238 236 232 226 222 224 227 230 231 227 231 236 235 233 234 236 236 233 231 230 231 232 234 237 228 208 191 186 191 187 188 199 191 187 209 217 209 212 220 220 217 217 221 230 236 238 239 241 244 248 256 264
273 272 272 273 273 272 270 270 269 268 268 267 267 265 264 265 265 265 263 260 260 256 244 240 242 240 237 241 245 248 252 249 244 244 239 231 235 237 235 228 222 225 228 230 231 226 227 232 233 233 233 235 237 234 230 229 229 227 226 222 213 202 193 188 188 178 175 184 179 178 196 209 207 208 216 222 221 221 224 229 234 237 241 245 250 256 262 268
273 273 273 273 273 272 271 271 270 269 267 266 264 262 262 263 262 261 259 259 260 253 239 233 234 235 234 237 240 243 247 247 246 246 239 228 230 234 235 228 223 227 230 230 230 227 227 228 227 227 229 232 234 232 230 229 229 223 215 208 202 200 198 194 190 184 184 189 183 181 191 200 204 204 211 217 219 223 229 233 237 241 245 249 255 262 266 270
274 274 273 273 273 272 272 271 270 268 267 265 264 262 263 262 260 258 255 255 253 246 235 230 231 233 235 237 234 234 237 238 242 243 237 230 230 231 230 225 220 224 228 228 227 228 228 226 223 221 222 225 228 230 228 225 223 213 206 205 200 201 201 198 195 192 197 201 196 196 199 201 203 202 204 213 219 226 235 240 243 246 249 251 256 263 266 270
275 275 274 273 273 271 271 271 269 267 266 265 263 262 261 259 257 255 252 251 248 243 230 218 226 234 236 235 230 232 235 230 234 238 233 229 230 227 223 221 220 221 225 224 223 227 228 227 227 225 219 218 224 226 220 217 219 210 206 204 200 202 202 199 198 199 207 211 208 210 214 214 212 212 217 226 232 236 241 244 246 246 245 246 253 259 264 271
274 274 274 273 271 270 269 269 268 267 265 263 262 261 258 256 254 253 252 249 241 236 229 214 212 219 228 233 226 222 229 230 233 236 231 227 231 229 224 223 223 223 226 226 225 226 227 227 230 230 221 215 219 224 221 218 218 210 206 202 199 201 202 203 204 205 212 217 215 215 222 225 223 222 224 227 232 236 238 242 245 245 243 245 251 257 264 273
272 272 272 272 270 269 267 266 266 265 263 261 260 259 257 254 253 254 252 245 231 225 226 220 217 215 220 232 230 222 226 230 234 235 230 227 231 232 226 224 225 226 228 231 229 228 229 227 226 226 224 219 218 225 228 221 218 216 208 201 199 201 202 205 209 212 216 221 221 217 220 227 229 226 217 214 220 226 226 230 238 240 241 244 250 256 263 270
270 269 270 270 270 269 266 264 265 264 261 260 258 257 255 254 254 254 247 239 227 219 217 217 223 225 223 227 229 226 224 228 236 238 233 226 226 228 225 221 223 225 226 229 228 226 228 229 228 225 224 220 208 209 216 213 217 221 211 201 200 200 203 206 210 214 219 224 225 223 222 226 230 231 219 210 214 218 218 220 225 229 233 237 243 250 255 259
269 269 270 271 271 271 268 265 264 264 263 260 258 256 255 256 255 247 239 226 211 211 213 214 220 228 231 227 221 220 217 218 229 236 236 232 224 223 222 220 221 219 218 223 222 220 222 224 230 231 226 223 217 212 212 207 212 219 213 207 203 201 203 208 212 218 222 225 227 228 230 231 232 237 235 222 218 221 223 222 223 228 232 235 241 250 254 257
271 272 273 272 272 271 270 267 264 264 264 262 259 257 256 255 248 236 225 206 201 208 213 215 214 216 225 223 214 214 212 212 222 229 234 234 226 220 217 215 219 218 215 218 217 217 218 216 222 231 230 228 232 235 226 213 213 220 220 214 208 204 206 208 212 218 222 224 228 231 233 235 236 241 245 237 228 227 229 230 232 238 243 246 247 250 254 259
276 276 275 273 273 272 271 269 266 263 263 261 260 258 254 249 241 232 220 205 205 211 211 211 212 209 210 208 203 210 215 214 221 225 230 233 227 216 210 207 213 218 217 217 218 219 219 211 208 218 224 217 207 211 221 217 217 224 224 216 210 211 212 210 213 218 220 220 223 226 229 234 237 241 243 238 234 234 235 239 244 247 250 253 253 255 258 261
279 278 275 273 273 273 271 269 267 264 261 260 258 254 249 243 239 231 220 208 205 210 209 206 206 203 198 197 196 204 219 222 223 222 225 231 225 213 209 207 209 214 213 210 211 219 222 215 203 205 214 208 195 198 212 217 217 221 222 211 206 215 217 213 215 221 220 216 216 218 220 227 233 237 238 234 235 240 242 246 250 250 248 250 257 265 267 264
280 279 277 276 274 274 273 271 269 266 262 259 256 252 246 241 238 231 222 213 207 207 208 205 204 202 199 198 199 201 211 223 228 222 221 227 225 213 209 213 213 213 213 209 206 209 216 215 201 198 207 206 203 205 207 212 212 213 216 207 200 209 218 217 218 221 221 217 216 215 216 222 228 233 236 234 235 238 241 244 247 248 250 252 256 258 257 256
281 280 281 283 283 282 281 278 275 270 266 262 257 253 247 241 238 232 225 218 211 209 207 205 205 207 206 203 203 204 207 216 224 224 222 225 224 217 215 218 217 216 217 214 209 206 211 210 199 198 205 205 207 209 205 208 208 209 215 211 201 203 211 216 221 225 225 223 220 216 217 223 228 233 236 236 237 237 234 237 239 242 247 248 246 244 242 243
287 285 287 290 289 287 286 283 281 276 272 267 261 257 251 244 239 234 227 220 216 212 208 206 207 209 210 208 206 207 211 217 223 225 225 223 220 220 222 223 221 218 217 216 212 208 210 211 201 198 207 211 213 214 209 207 207 209 216 216 209 206 209 211 217 224 227 228 227 221 220 224 227 232 235 237 241 243 241 242 239 237 240 242 241 240 238 240
295 295 297 297 293 290 287 284 283 280 276 270 263 256 250 244 239 236 232 227 222 218 212 208 208 210 210 210 208 207 211 219 225 227 226 221 219 223 226 226 225 222 217 216 215 211 210 213 206 199 207 217 220 221 213 204 202 208 216 220 218 214 214 213 215 221 225 227 229 227 228 231 232 233 235 236 240 246 250 251 246 241 240 240 241 243 244 247
302 302 304 302 297 293 292 291 292 289 285 278 268 258 249 242 236 232 232 229 225 221 215 209 208 210 209 209 209 210 213 218 223 225 223 221 223 228 228 226 226 226 221 217 215 213 213 215 212 203 207 219 224 226 222 208 202 207 214 220 221 219 219 217 218 224 227 227 229 229 231 235 237 237 237 236 236 240 246 252 255 256 254 250 251 252 250 249
307 307 309 306 297 289 291 299 302 299 293 290 281 267 254 244 235 228 226 223 220 219 216 211 208 209 209 209 209 210 213 217 221 222 220 220 224 228 229 227 225 226 227 222 217 216 216 218 217 208 208 219 225 228 228 222 213 209 212 217 220 221 223 221 220 225 230 233 234 234 234 237 240 241 240 237 235 235 238 244 251 257 258 258 258 254 250 251
310 312 312 305 291 282 289 304 308 302 296 292 287 278 264 249 237 229 224 220 217 217 217 213 210 209 209 210 208 208 212 216 220 222 219 220 227 231 232 233 230 229 232 228 222 221 221 221 220 214 210 217 226 229 230 227 221 215 212 214 218 221 224 224 222 224 230 236 237 237 237 237 240 244 244 240 239 238 235 237 245 252 252 253 256 253 249 250
315 318 316 303 285 281 295 310 312 305 297 290 285 281 273 255 238 228 225 221 217 217 217 215 212 210 210 209 205 207 212 213 216 219 216 218 229 234 233 234 234 234 236 232 226 225 225 223 222 219 216 217 223 229 231 229 224 220 217 215 217 221 225 227 227 226 228 234 236 237 237 237 239 243 246 244 243 245 245 242 243 246 248 252 258 259 257 255
322 325 323 305 284 286 302 316 318 310 299 291 284 279 272 258 238 224 218 218 218 218 217 217 215 213 212 209 205 209 214 213 213 216 216 219 226 230 230 232 233 234 235 233 228 226 227 225 223 223 222 221 222 227 230 230 227 224 222 220 219 219 221 225 228 230 232 236 237 236 236 237 236 238 243 247 249 251 250 244 240 242 251 259 261 264 267 266
329 333 331 312 292 300 315 323 324 320 308 298 290 277 267 257 236 220 212 214 219 220 220 220 219 217 216 212 208 211 216 216 214 215 217 222 224 223 225 230 234 235 233 230 226 224 225 228 228 227 226 224 224 226 228 229 228 227 226 225 221 219 221 223 226 229 234 238 238 236 234 233 234 237 243 250 254 252 249 250 251 252 257 262 264 269 271 268
337 342 337 322 311 318 328 331 330 328 318 307 296 273 257 250 232 218 212 215 220 222 224 225 224 223 221 216 211 212 217 219 219 217 216 221 222 220 222 223 227 235 236 231 228 227 228 230 232 232 231 228 225 226 228 229 229 229 229 227 223 221 222 223 224 227 231 235 238 238 237 236 239 246 249 248 248 249 253 262 264 259 258 263 267 270 269 267
345 348 344 332 321 324 337 340 336 334 330 320 310 278 245 233 226 218 215 218 222 223 225 226 225 225 226 221 215 213 216 218 220 219 218 220 221 219 220 220 221 230 236 234 230 229 231 232 231 230 231 231 228 226 226 229 230 230 231 231 229 227 227 227 226 227 230 234 236 239 240 240 242 248 250 249 249 251 257 262 262 260 262 267 270 268 266 266
349 352 354 346 330 326 343 348 342 341 341 345 53 40 179 205 218 219 216 217 219 221 223 224 222 222 224 224 220 216 216 218 221 221 219 220 219 216 216 219 221 227 232 233 231 229 230 234 233 229 230 233 232 229 227 227 228 228 230 234 237 237 236 235 233 232 232 234 236 238 240 241 241 244 248 251 254 256 258 259 260 262 263 263 263 261 257 250
353 354 359 356 343 333 347 353 348 346 346 311 154 60 73 137 179 199 204 210 215 220 222 222 221 221 222 223 221 219 218 219 222 226 226 225 225 221 219 221 224 227 229 232 235 234 234 234 232 234 235 230 228 228 226 225 224 224 227 231 234 237 238 239 239 237 234 234 236 239 241 243 245 246 248 253 256 257 257 254 255 258 259 257 256 257 256 253
359 358 0 1 359 352 349 353 354 354 357 326 245 261 264 214 205 187 180 193 208 214 214 213 215 219 219 216 215 216 216 218 223 228 230 233 234 230 226 224 225 226 226 228 231 231 231 225 216 220 228 222 219 222 223 223 224 225 228 231 231 232 234 236 239 240 237 236 238 240 242 244 245 247 250 255 256 257 260 258 253 252 254 255 255 257 259 260
Height
5764 5765 5765 5765 5766 5766 5766 5767 5767 5767 5768 5769 5769 5770 5770 5771 5771 5772 5772 5773 5773 5774 5774 5774 5775 5775 5775 5775 5775 5775 5775 5775 5774 5774 5774 5774 5774 5773 5773 5774 5773 5773 5773 5773 5774 5774 5774 5774 5775 5775 5777 5778 5779 5780 5781 5782 5783 5784 5786 5789 5794 5797 5799 5800 5799 5801 5803 5801 5801 5801 5803 5805 5805 5805 5805 5806 5807 5807 5809 5809 5810 5815 5816 5816 5815 5816 5818 5818
5761 5761 5761 5762 5762 5762 5763 5763 5763 5764 5764 5765 5765 5766 5767 5767 5768 5768 5769 5769 5770 5770 5771 5771 5771 5771 5772 5772 5772 5772 5772 5771 5771 5771 5771 5770 5770 5770 5770 5770 5770 5770 5770 5770 5770 5771 5771 5771 5772 5773 5774 5775 5776 5777 5778 5779 5780 5781 5783 5786 5791 5795 5797 5796 5796 5799 5799 5798 5798 5797 5798 5801 5802 5802 5802 5804 5804 5804 5806 5806 5809 5813 5813 5813 5813 5814 5815 5816
5757 5757 5757 5758 5758 5759 5759 5759 5760 5760 5761 5761 5762 5762 5763 5764 5764 5765 5765 5766 5767 5767 5767 5768 5768 5768 5768 5768 5768 5769 5768 5768 5767 5767 5767 5767 5767 5767 5767 5767 5767 5767 5767 5767 5767 5768 5768 5768 5769 5770 5771 5772 5773 5774 5775 5776 5777 5779 5781 5784 5789 5792 5793 5793 5793 5795 5795 5795 5795 5794 5794 5796 5799 5798 5799 5801 5802 5802 5802 5804 5808 5810 5810 5810 5810 5811 5813 5814
5753 5753 5754 5754 5755 5755 5755 5756 5756 5757 5757 5758 5758 5759 5759 5760 5761 5761 5762 5763 5763 5764 5764 5764 5764 5765 5765 5765 5765 5765 5765 5764 5764 5764 5764 5764 5763 5763 5763 5763 5763 5763 5764 5764 5764 5764 5765 5766 5767 5768 5768 5770 5770 5771 5773 5774 5775 5777 5778 5782 5787 5788 5789 5790 5791 5791 5792 5793 5792 5791 5791 5794 5796 5796 5797 5798 5799 5800 5799 5802 5807 5807 5807 5808 5808 5808 5810 5811
5749 5750 5750 5751 5751 5752 5752 5752 5753 5753 5754 5754 5754 5755 5756 5756 5757 5758 5758 5759 5760 5760 5761 5761 5761 5761 5762 5762 5761 5762 5761 5760 5760 5761 5761 5760 5760 5760 5760 5760 5760 5760 5761 5761 5761 5762 5762 5763 5764 5765 5766 5767 5768 5769 5771 5772 5773 5774 5775 5780 5783 5784 5786 5787 5787 5787 5788 5789 5788 5788 5789 5793 5794 5794 5795 5796 5797 5797 5797 5802 5804 5803 5804 5806 5806 5806 5806 5808
5746 5746 5747 5747 5748 5748 5748 5749 5749 5750 5750 5750 5751 5751 5752 5753 5753 5754 5755 5756 5756 5757 5757 5757 5757 5758 5758 5758 5758 5758 5758 5756 5757 5757 5757 5757 5756 5756 5757 5757 5757 5758 5758 5758 5758 5759 5760 5761 5762 5763 5764 5765 5766 5767 5769 5769 5769 5771 5773 5777 5779 5782 5784 5784 5783 5784 5784 5785 5786 5785 5786 5789 5792 5792 5793 5793 5794 5795 5797 5801 5801 5801 5802 5804 5805 5804 5804 5806
5742 5743 5743 5744 5744 5744 5745 5745 5746 5746 5746 5747 5747 5748 5748 5749 5750 5750 5751 5752 5753 5753 5754 5754 5754 5755 5755 5755 5754 5754 5754 5753 5754 5754 5754 5753 5753 5753 5754 5754 5754 5755 5755 5756 5756 5757 5757 5758 5760 5761 5762 5762 5764 5765 5766 5766 5766 5768 5771 5774 5776 5779 5781 5781 5781 5781 5781 5782 5782 5782 5783 5785 5789 5789 5790 5791 5792 5794 5796 5798 5799 5800 5801 5802 5803 5803 5803 5804
5739 5739 5740 5740 5740 5741 5741 5742 5742 5742 5743 5743 5743 5744 5744 5745 5746 5747 5748 5748 5749 5750 5750 5751 5751 5751 5752 5752 5751 5751 5750 5751 5751 5751 5750 5750 5750 5750 5751 5751 5751 5752 5753 5753 5754 5755 5755 5757 5758 5758 5759 5761 5761 5762 5763 5763 5763 5765 5769 5771 5774 5777 5778 5778 5778 5778 5778 5778 5779 5780 5780 5782 5784 5785 5786 5788 5789 5791 5793 5794 5796 5798 5800 5800 5800 5801 5802 5802
5735 5736 5736 5736 5737 5737 5737 5738 5738 5739 5739 5739 5740 5740 5741 5741 5742 5743 5744 5745 5746 5747 5747 5747 5747 5748 5748 5748 5748 5747 5747 5747 5747 5747 5748 5747 5747 5747 5747 5748 5749 5749 5750 5751 5752 5753 5754 5755 5755 5755 5757 5757 5758 5759 5760 5760 5760 5763 5766 5768 5770 5773 5774 5774 5774 5775 5776 5776 5777 5777 5778 5778 5780 5781 5782 5784 5787 5790 5791 5791 5793 5795 5797 5798 5798 5799 5800 5800
5731 5732 5732 5733 5733 5733 5734 5734 5734 5735 5735 5735 5736 5736 5737 5738 5738 5739 5740 5742 5743 5743 5744 5744 5744 5745 5744 5745 5744 5743 5744 5744 5744 5744 5744 5744 5744 5744 5744 5745 5746 5747 5748 5749 5750 5751 5751 5751 5752 5752 5753 5754 5755 5756 5757 5758 5759 5761 5762 5763 5765 5767 5769 5770 5771 5772 5773 5774 5775 5775 5776 5777 5778 5780 5781 5783 5786 5788 5789 5789 5790 5792 5794 5795 5795 5797 5797 5798
5727 5728 5728 5729 5729 5730 5730 5730 5730 5731 5731 5731 5732 5732 5733 5734 5734 5735 5737 5738 5739 5740 5740 5740 5741 5741 5741 5741 5741 5740 5741 5741 5741 5741 5741 5741 5741 5741 5741 5742 5743 5744 5745 5746 5747 5748 5748 5749 5749 5749 5751 5753 5753 5754 5754 5756 5757 5757 5759 5761 5763 5765 5767 5768 5768 5769 5770 5770 5771 5772 5774 5775 5777 5780 5781 5782 5784 5785 5786 5786 5788 5790 5792 5792 5793 5794 5795 5796
5723 5724 5724 5725 5725 5726 5726 5726 5727 5727 5727 5727 5728 5728 5729 5730 5730 5731 5733 5734 5735 5735 5736 5737 5737 5738 5737 5737 5737 5737 5738 5738 5737 5737 5737 5737 5737 5738 5738 5739 5740 5741 5742 5744 5745 5745 5746 5746 5746 5747 5749 5750 5751 5752 5752 5754 5754 5755 5757 5759 5762 5763 5765 5766 5767 5767 5767 5768 5769 5770 5772 5773 5776 5780 5781 5781 5780 5782 5784 5784 5786 5788 5789 5790 5791 5792 5793 5794
5719 5720 5720 5721 5721 5721 5722 5722 5723 5723 5723 5724 5724 5724 5725 5726 5726 5727 5729 5730 5731 5731 5732 5733 5734 5734 5734 5733 5733 5734 5734 5734 5734 5734 5734 5734 5734 5734 5735 5736 5737 5739 5740 5741 5742 5742 5743 5743 5744 5746 5747 5748 5749 5750 5751 5752 5753 5754 5755 5757 5759 5760 5763 5766 5767 5767 5766 5767 5768 5768 5769 5771 5776 5780 5781 5780 5779 5780 5782 5783 5784 5786 5787 5788 5789 5790 5791 5791
5715 5716 5716 5716 5717 5717 5718 5718 5718 5719 5719 5719 5720 5720 5721 5721 5722 5723 5725 5725 5726 5727 5728 5729 5730 5730 5730 5729 5730 5731 5731 5731 5731 5731 5731 5731 5731 5731 5731 5733 5734 5736 5737 5738 5739 5740 5740 5741 5742 5743 5744 5746 5747 5748 5749 5749 5750 5752 5753 5754 5757 5758 5762 5766 5766 5766 5766 5766 5766 5766 5767 5769 5774 5778 5780 5780 5777 5777 5779 5780 5782 5783 5785 5787 5788 5788 5789 5789
5711 5712 5712 5712 5713 5713 5713 5714 5714 5715 5715 5715 5716 5716 5717 5717 5718 5719 5721 5721 5722 5723 5725 5726 5726 5726 5726 5725 5726 5727 5727 5727 5727 5727 5727 5728 5728 5727 5728 5730 5731 5733 5734 5735 5736 5737 5738 5738 5739 5741 5742 5743 5744 5745 5746 5746 5748 5750 5751 5753 5755 5757 5760 5763 5764 5765 5766 5767 5767 5766 5766 5768 5772 5776 5778 5778 5775 5774 5776 5778 5779 5781 5782 5784 5786 5786 5786 5786
5707 5707 5708 5708 5709 5709 5709 5709 5710 5710 5711 5711 5712 5712 5713 5713 5713 5715 5716 5717 5718 5719 5721 5722 5722 5723 5723 5722 5723 5723 5723 5723 5723 5724 5724 5725 5725 5724 5724 5726 5728 5730 5731 5732 5733 5734 5735 5736 5737 5738 5739 5740 5741 5743 5744 5744 5746 5748 5750 5752 5754 5755 5757 5759 5761 5762 5764 5766 5766 5765 5764 5766 5770 5774 5777 5776 5773 5772 5773 5775 5776 5778 5780 5782 5784 5784 5784 5785
5703 5703 5704 5704 5705 5705 5705 5705 5706 5706 5707 5707 5707 5708 5709 5709 5709 5711 5712 5713 5714 5716 5717 5718 5718 5719 5719 5719 5720 5720 5720 5720 5720 5720 5720 5720 5721 5721 5721 5723 5725 5726 5728 5729 5730 5731 5732 5733 5734 5735 5737 5738 5739 5740 5741 5743 5746 5747 5748 5750 5752 5752 5753 5755 5757 5758 5760 5761 5762 5763 5761 5763 5768 5772 5773 5773 5771 5770 5770 5772 5773 5776 5778 5780 5781 5781 5782 5783
5699 5700 5700 5700 5701 5701 5701 5702 5702 5702 5702 5703 5703 5704 5704 5705 5706 5707 5708 5710 5710 5712 5713 5714 5715 5715 5715 5716 5717 5716 5717 5717 5717 5717 5717 5717 5717 5718 5719 5720 5722 5723 5725 5726 5727 5728 5729 5730 5731 5732 5734 5736 5737 5738 5740 5742 5745 5745 5745 5747 5748 5748 5748 5751 5752 5753 5755 5756 5758 5759 5759 5761 5765 5768 5770 5770 5769 5768 5767 5769 5771 5773 5776 5777 5778 5778 5779 5780
5696 5696 5697 5697 5697 5698 5698 5698 5698 5698 5698 5699 5699 5700 5700 5701 5702 5703 5704 5706 5707 5708 5709 5710 5711 5712 5712 5713 5713 5713 5714 5714 5714 5714 5714 5714 5714 5715 5716 5717 5719 5720 5722 5724 5725 5725 5726 5727 5728 5730 5733 5735 5736 5736 5738 5741 5741 5741 5742 5743 5744 5744 5746 5749 5751 5751 5751 5751 5753 5755 5757 5760 5763 5764 5766 5767 5767 5766 5765 5766 5767 5770 5773 5774 5774 5775 5776 5777
5692 5693 5693 5694 5694 5694 5694 5694 5694 5694 5695 5694 5695 5695 5696 5697 5698 5699 5701 5702 5703 5704 5705 5707 5708 5709 5709 5709 5709 5710 5711 5711 5711 5711 5711 5711 5711 5712 5713 5715 5716 5718 5720 5722 5722 5723 5723 5724 5726 5729 5732 5732 5732 5733 5736 5737 5738 5738 5739 5739 5741 5743 5745 5748 5749 5749 5749 5747 5749 5751 5754 5757 5760 5761 5762 5763 5764 5764 5763 5763 5764 5767 5770 5770 5771 5772 5773 5775
5689 5690 5690 5691 5691 5691 5691 5691 5691 5691 5691 5690 5691 5691 5692 5693 5694 5695 5698 5699 5700 5701 5702 5703 5704 5706 5706 5705 5706 5707 5707 5708 5709 5709 5708 5708 5708 5709 5711 5712 5714 5716 5718 5719 5720 5720 5721 5723 5725 5728 5729 5729 5729 5731 5732 5734 5735 5735 5736 5738 5739 5741 5744 5747 5747 5746 5745 5744 5746 5749 5750 5753 5756 5758 5760 5761 5762 5762 5762 5761 5762 5764 5766 5767 5767 5768 5770 5773
5686 5686 5687 5687 5687 5687 5687 5687 5688 5688 5687 5687 5688 5688 5689 5690 5691 5692 5694 5696 5698 5697 5698 5699 5701 5703 5703 5701 5702 5703 5704 5706 5707 5706 5706 5706 5706 5707 5708 5710 5712 5714 5715 5716 5717 5718 5720 5722 5724 5725 5725 5725 5727 5728 5730 5731 5732 5733 5734 5736 5737 5739 5742 5744 5745 5744 5743 5742 5745 5748 5748 5750 5753 5755 5758 5759 5760 5761 5760 5760 5761 5761 5762 5763 5764 5766 5769 5771
5683 5683 5683 5684 5684 5684 5684 5684 5684 5684 5684 5684 5685 5685 5686 5687 5687 5689 5690 5692 5694 5694 5694 5696 5697 5699 5700 5700 5699 5699 5702 5703 5704 5704 5703 5703 5704 5704 5705 5708 5709 5711 5712 5714 5715 5716 5719 5720 5721 5721 5722 5723 5724 5726 5727 5729 5730 5731 5733 5734 5736 5738 5739 5741 5741 5741 5741 5741 5744 5746 5747 5749 5751 5752 5755 5757 5758 5758 5759 5759 5760 5759 5759 5761 5763 5765 5768 5770
5679 5680 5680 5680 5680 5680 5680 5681 5681 5681 5681 5681 5682 5682 5683 5683 5684 5685 5686 5687 5690 5691 5690 5691 5693 5696 5698 5697 5695 5696 5699 5700 5701 5701 5700 5701 5702 5702 5703 5706 5707 5708 5710 5712 5713 5715 5716 5717 5717 5718 5720 5721 5722 5723 5725 5726 5728 5729 5731 5732 5734 5736 5737 5738 5739 5739 5739 5741 5743 5745 5745 5746 5748 5749 5753 5755 5755 5756 5757 5758 5758 5757 5758 5759 5761 5764 5767 5769
5676 5676 5677 5677 5677 5677 5677 5678 5678 5678 5678 5678 5679 5680 5680 5680 5680 5682 5682 5683 5686 5687 5687 5687 5690 5693 5693 5693 5694 5695 5696 5698 5698 5698 5698 5699 5700 5700 5701 5703 5705 5707 5709 5710 5711 5713 5714 5714 5715 5717 5718 5719 5720 5721 5723 5724 5726 5727 5729 5730 5732 5733 5734 5735 5736 5737 5738 5739 5741 5742 5742 5743 5745 5748 5751 5753 5752 5753 5755 5755 5755 5755 5756 5758 5761 5764 5767 5769
5673 5673 5673 5674 5673 5674 5674 5674 5675 5675 5676 5676 5676 5677 5677 5677 5678 5679 5680 5680 5682 5684 5684 5685 5687 5689 5690 5690 5691 5692 5693 5695 5695 5695 5696 5697 5697 5697 5699 5701 5703 5705 5706 5707 5708 5711 5711 5712 5713 5714 5715 5717 5718 5719 5721 5721 5723 5725 5727 5728 5729 5730 5731 5733 5734 5735 5736 5737 5737 5738 5740 5742 5744 5747 5749 5750 5750 5752 5752 5752 5752 5753 5755 5758 5761 5764 5766 5767
5670 5670 5670 5670 5670 5670 5670 5671 5671 5672 5673 5673 5674 5674 5673 5674 5675 5676 5677 5677 5679 5680 5681 5682 5684 5686 5687 5687 5688 5689 5690 5692 5691 5691 5694 5696 5695 5695 5697 5699 5702 5703 5703 5704 5706 5708 5709 5710 5712 5712 5713 5714 5716 5717 5718 5719 5721 5723 5725 5726 5727 5728 5729 5730 5731 5732 5734 5734 5734 5736 5738 5741 5743 5745 5747 5747 5748 5750 5750 5750 5750 5751 5754 5757 5759 5762 5763 5764
5667 5666 5667 5667 5667 5667 5667 5668 5668 5669 5669 5670 5670 5670 5670 5672 5673 5673 5674 5675 5677 5678 5678 5679 5681 5682 5683 5684 5686 5687 5687 5688 5689 5689 5691 5693 5692 5693 5695 5697 5700 5700 5700 5702 5704 5706 5706 5707 5709 5710 5711 5712 5714 5715 5716 5717 5719 5721 5722 5723 5724 5725 5727 5728 5729 5730 5732 5732 5733 5734 5736 5738 5741 5744 5745 5745 5745 5747 5748 5749 5750 5751 5753 5756 5758 5760 5761 5762
5663 5663 5663 5664 5664 5663 5664 5664 5665 5665 5666 5666 5666 5667 5668 5669 5670 5670 5671 5673 5674 5676 5676 5678 5679 5679 5680 5682 5684 5685 5685 5687 5686 5686 5688 5690 5690 5691 5693 5695 5697 5697 5697 5699 5702 5704 5704 5705 5706 5707 5708 5710 5712 5713 5714 5715 5717 5718 5719 5720 5722 5723 5725 5727 5728 5729 5730 5730 5732 5733 5734 5736 5739 5742 5743 5743 5743 5745 5746 5747 5748 5750 5752 5754 5756 5757 5759 5759
5660 5660 5660 5660 5660 5660 5660 5661 5661 5661 5662 5663 5663 5664 5665 5665 5666 5667 5668 5670 5672 5673 5675 5675 5676 5677 5678 5680 5682 5683 5684 5684 5684 5684 5686 5688 5688 5689 5691 5692 5693 5694 5695 5697 5700 5701 5702 5703 5703 5704 5705 5707 5709 5711 5712 5713 5714 5715 5717 5718 5720 5721 5723 5725 5726 5728 5728 5728 5730 5732 5733 5735 5737 5740 5741 5741 5740 5741 5743 5744 5746 5748 5750 5752 5754 5755 5756 5757
5657 5657 5657 5657 5657 5657 5657 5658 5658 5658 5659 5659 5660 5660 5661 5661 5662 5663 5666 5668 5669 5670 5671 5672 5672 5673 5674 5676 5678 5680 5681 5681 5681 5682 5684 5685 5686 5687 5688 5689 5690 5692 5693 5695 5697 5699 5700 5700 5701 5702 5704 5705 5707 5708 5710 5712 5713 5714 5715 5716 5718 5719 5721 5723 5724 5725 5725 5726 5729 5731 5732 5733 5735 5737 5738 5738 5738 5739 5740 5741 5743 5746 5748 5750 5752 5752 5753 5754
5654 5654 5654 5653 5654 5654 5655 5655 5655 5655 5656 5656 5657 5657 5658 5658 5659 5661 5664 5665 5666 5667 5668 5667 5668 5669 5670 5672 5674 5676 5677 5678 5678 5679 5682 5683 5683 5685 5686 5687 5688 5689 5691 5693 5695 5696 5697 5698 5699 5700 5702 5704 5705 5707 5708 5710 5711 5712 5713 5714 5716 5717 5719 5721 5723 5724 5724 5726 5728 5730 5730 5731 5733 5734 5734 5735 5736 5737 5738 5739 5741 5744 5747 5748 5749 5749 5751 5752
5651 5651 5651 5651 5651 5651 5652 5652 5652 5652 5652 5653 5654 5654 5654 5655 5657 5659 5661 5661 5663 5665 5664 5664 5665 5666 5667 5669 5670 5672 5674 5675 5675 5676 5678 5680 5681 5683 5684 5684 5686 5687 5689 5691 5692 5693 5695 5696 5697 5699 5700 5702 5704 5706 5707 5709 5710 5711 5711 5712 5713 5715 5717 5718 5720 5721 5723 5724 5726 5728 5729 5729 5730 5731 5732 5734 5735 5735 5737 5737 5739 5741 5743 5744 5745 5747 5749 5749
5649 5648 5648 5648 5648 5648 5649 5649 5649 5649 5649 5650 5651 5651 5652 5653 5655 5657 5657 5658 5660 5660 5660 5661 5663 5664 5665 5666 5667 5669 5671 5672 5672 5673 5674 5676 5678 5680 5681 5682 5683 5685 5687 5687 5689 5691 5692 5693 5695 5697 5699 5701 5703 5705 5706 5707 5709 5709 5710 5710 5712 5713 5715 5717 5719 5720 5721 5723 5725 5726 5726 5726 5727 5728 5730 5732 5733 5734 5735 5736 5737 5739 5741 5742 5744 5746 5747 5747
5646 5646 5646 5646 5645 5646 5646 5646 5647 5646 5646 5647 5647 5648 5650 5651 5652 5653 5654 5655 5655 5655 5655 5657 5659 5661 5662 5663 5664 5666 5668 5669 5669 5670 5670 5672 5675 5678 5679 5680 5681 5683 5684 5685 5686 5688 5690 5692 5694 5696 5698 5700 5702 5703 5704 5705 5706 5708 5708 5709 5710 5712 5714 5716 5717 5718 5719 5721 5723 5724 5723 5723 5724 5726 5728 5729 5731 5732 5733 5734 5736 5738 5740 5741 5742 5743 5744 5746
5644 5644 5644 5643 5643 5643 5643 5643 5644 5644 5644 5644 5644 5645 5647 5647 5648 5649 5650 5651 5651 5652 5653 5655 5657 5658 5659 5659 5661 5663 5665 5666 5667 5667 5667 5668 5672 5674 5676 5677 5678 5680 5681 5683 5685 5686 5688 5690 5693 5695 5696 5698 5700 5701 5702 5703 5704 5706 5707 5708 5709 5711 5712 5714 5715 5716 5717 5719 5720 5720 5720 5721 5722 5724 5725 5727 5728 5729 5731 5732 5734 5735 5737 5738 5739 5740 5742 5744
5641 5641 5641 5641 5640 5640 5640 5640 5640 5640 5640 5640 5641 5642 5643 5643 5644 5645 5646 5647 5648 5649 5651 5653 5654 5655 5655 5656 5657 5658 5660 5663 5664 5665 5665 5666 5668 5670 5672 5674 5675 5677 5678 5680 5682 5684 5686 5688 5691 5693 5694 5695 5697 5698 5700 5701 5702 5704 5705 5706 5708 5709 5709 5711 5712 5713 5715 5716 5717 5717 5718 5719 5720 5721 5723 5725 5726 5727 5729 5730 5731 5732 5734 5735 5737 5738 5739 5741
5639 5639 5638 5638 5638 5637 5637 5637 5637 5637 5637 5637 5637 5637 5638 5639 5640 5641 5642 5643 5644 5645 5647 5649 5651 5651 5652 5653 5653 5654 5656 5658 5660 5662 5663 5663 5665 5667 5670 5671 5673 5675 5676 5677 5679 5681 5683 5686 5688 5690 5691 5693 5694 5695 5697 5698 5699 5701 5703 5703 5705 5706 5707 5708 5710 5711 5712 5714 5714 5715 5716 5716 5717 5718 5720 5722 5723 5724 5726 5728 5728 5729 5731 5733 5735 5736 5738 5739
5637 5637 5636 5635 5635 5634 5633 5633 5633 5633 5633 5633 5633 5633 5634 5635 5636 5637 5638 5639 5640 5641 5643 5645 5647 5648 5649 5650 5650 5651 5652 5654 5655 5657 5659 5660 5662 5665 5667 5669 5671 5673 5674 5675 5677 5679 5680 5683 5686 5687 5689 5690 5691 5692 5694 5695 5696 5698 5699 5700 5701 5703 5705 5706 5708 5709 5710 5711 5712 5713 5714 5714 5715 5716 5717 5719 5719 5720 5722 5725 5726 5727 5729 5731 5732 5734 5735 5735
5635 5634 5634 5633 5632 5631 5631 5630 5629 5629 5629 5629 5629 5629 5630 5631 5632 5632 5633 5634 5635 5637 5638 5641 5643 5644 5645 5646 5647 5648 5649 5650 5651 5653 5656 5658 5660 5662 5664 5666 5668 5671 5672 5673 5674 5676 5678 5680 5684 5685 5687 5688 5688 5689 5691 5692 5694 5695 5696 5697 5699 5700 5702 5703 5705 5706 5708 5709 5710 5711 5711 5712 5713 5714 5716 5717 5717 5719 5721 5722 5724 5725 5726 5728 5729 5730 5731 5731
5632 5632 5631 5631 5629 5628 5628 5627 5626 5625 5625 5624 5624 5625 5626 5627 5628 5629 5629 5631 5632 5633 5635 5637 5639 5640 5641 5643 5644 5645 5645 5646 5648 5651 5653 5655 5657 5659 5661 5663 5665 5667 5669 5670 5671 5673 5675 5677 5681 5684 5685 5685 5685 5686 5688 5689 5691 5693 5694 5696 5697 5699 5700 5702 5703 5703 5705 5706 5708 5709 5710 5711 5712 5713 5714 5715 5716 5717 5719 5720 5721 5722 5724 5725 5726 5727 5728 5729
5630 5629 5629 5627 5626 5625 5624 5623 5622 5622 5621 5620 5619 5620 5620 5622 5623 5624 5625 5627 5629 5631 5632 5633 5634 5635 5637 5639 5641 5642 5643 5645 5646 5649 5651 5653 5654 5656 5657 5659 5661 5663 5666 5667 5668 5670 5672 5674 5678 5682 5683 5682 5682 5684 5685 5687 5689 5690 5692 5693 5695 5697 5698 5699 5701 5701 5703 5704 5706 5707 5709 5709 5710 5711 5713 5714 5715 5716 5717 5718 5719 5721 5722 5722 5723 5724 5726 5726
5628 5627 5626 5624 5623 5622 5621 5620 5619 5618 5617 5616 5615 5614 5615 5616 5618 5619 5620 5622 5624 5626 5627 5628 5629 5630 5633 5635 5638 5640 5641 5643 5644 5646 5649 5650 5651 5653 5654 5656 5658 5660 5662 5664 5665 5667 5669 5671 5674 5678 5680 5680 5679 5681 5682 5685 5687 5688 5689 5691 5692 5694 5695 5697 5699 5700 5701 5702 5704 5706 5707 5708 5709 5709 5710 5712 5713 5714 5716 5717 5718 5719 5719 5719 5720 5722 5724 5725
5626 5625 5623 5621 5620 5619 5618 5617 5616 5614 5613 5612 5611 5610 5610 5611 5612 5614 5615 5616 5618 5620 5621 5623 5624 5626 5628 5631 5635 5638 5639 5639 5641 5644 5646 5648 5649 5650 5651 5653 5655 5656 5658 5661 5663 5665 5667 5668 5671 5674 5677 5677 5677 5677 5679 5682 5685 5686 5686 5688 5689 5691 5692 5694 5697 5698 5699 5700 5702 5703 5704 5706 5708 5707 5708 5710 5711 5712 5713 5714 5715 5716 5716 5716 5717 5719 5722 5723
5624 5623 5620 5618 5617 5617 5616 5615 5613 5611 5609 5607 5606 5606 5606 5606 5607 5609 5612 5613 5613 5614 5616 5618 5620 5622 5624 5629 5633 5635 5635 5636 5639 5642 5644 5645 5646 5647 5649 5650 5652 5653 5655 5657 5660 5662 5664 5666 5668 5671 5673 5674 5675 5675 5676 5678 5681 5683 5684 5685 5687 5688 5690 5692 5694 5696 5697 5697 5699 5700 5701 5703 5705 5705 5705 5707 5709 5711 5712 5712 5713 5714 5714 5715 5716 5717 5719 5720
5622 5620 5618 5616 5615 5614 5614 5613 5611 5608 5605 5603 5602 5602 5602 5602 5603 5605 5608 5608 5608 5610 5612 5613 5616 5619 5623 5627 5631 5632 5632 5634 5637 5640 5642 5643 5644 5645 5647 5648 5650 5651 5653 5655 5657 5659 5661 5663 5665 5667 5669 5670 5671 5672 5673 5675 5678 5680 5681 5683 5684 5686 5687 5689 5691 5693 5694 5695 5696 5698 5699 5700 5702 5702 5702 5704 5706 5709 5710 5710 5711 5712 5713 5713 5714 5715 5716 5717
5620 5618 5616 5614 5613 5613 5612 5610 5608 5605 5602 5600 5599 5598 5598 5598 5599 5600 5603 5603 5604 5607 5609 5611 5615 5618 5621 5625 5628 5629 5630 5633 5636 5638 5640 5641 5642 5644 5645 5647 5648 5649 5651 5653 5654 5656 5658 5660 5661 5663 5665 5666 5668 5669 5670 5672 5674 5676 5678 5679 5681 5682 5684 5686 5688 5690 5691 5693 5694 5696 5698 5699 5699 5700 5701 5702 5704 5706 5707 5707 5708 5709 5710 5709 5711 5712 5713 5714
5618 5616 5614 5612 5611 5611 5609 5607 5605 5602 5600 5598 5596 5595 5596 5596 5596 5597 5599 5600 5602 5606 5608 5610 5614 5617 5620 5623 5625 5627 5629 5632 5634 5636 5638 5639 5641 5642 5643 5645 5646 5647 5648 5650 5652 5654 5655 5657 5658 5660 5660 5661 5663 5665 5666 5668 5670 5672 5674 5675 5677 5679 5681 5683 5685 5686 5688 5690 5691 5693 5695 5696 5697 5698 5699 5701 5702 5702 5704 5704 5705 5706 5706 5706 5707 5709 5710 5711
5617 5615 5612 5611 5610 5609 5608 5605 5603 5600 5598 5596 5595 5594 5594 5594 5594 5595 5597 5600 5602 5605 5607 5609 5612 5615 5619 5621 5622 5624 5627 5629 5632 5634 5636 5638 5639 5640 5642 5643 5644 5645 5646 5648 5649 5651 5652 5653 5654 5656 5655 5656 5658 5661 5663 5665 5666 5668 5670 5672 5673 5676 5679 5681 5683 5684 5685 5686 5688 5689 5691 5693 5695 5695 5697 5699 5700 5701 5702 5703 5703 5704 5705 5705 5705 5706 5707 5708
5616 5614 5611 5609 5608 5607 5606 5604 5601 5599 5597 5596 5595 5594 5594 5594 5594 5594 5596 5599 5601 5604 5606 5607 5610 5613 5615 5617 5620 5622 5624 5627 5630 5632 5634 5636 5637 5638 5640 5641 5642 5643 5644 5645 5647 5648 5650 5650 5650 5651 5651 5653 5655 5657 5659 5662 5663 5665 5667 5669 5670 5673 5676 5679 5681 5682 5683 5684 5685 5686 5687 5689 5691 5692 5694 5696 5698 5698 5699 5701 5702 5703 5703 5704 5704 5704 5705 5706
5615 5613 5611 5609 5607 5606 5604 5603 5601 5599 5597 5596 5595 5595 5594 5594 5594 5595 5596 5598 5600 5602 5604 5606 5608 5610 5612 5614 5617 5619 5622 5625 5627 5629 5631 5633 5635 5636 5638 5639 5640 5641 5642 5643 5645 5646 5647 5647 5648 5648 5649 5651 5652 5653 5655 5657 5659 5661 5663 5665 5667 5669 5672 5675 5678 5679 5680 5681 5682 5684 5685 5685 5687 5689 5691 5693 5694 5695 5695 5697 5699 5700 5700 5701 5702 5702 5702 5703
5615 5613 5610 5608 5607 5605 5604 5602 5601 5599 5597 5596 5595 5595 5595 5595 5595 5595 5596 5597 5599 5600 5601 5603 5606 5607 5609 5611 5613 5616 5619 5622 5624 5627 5629 5631 5633 5634 5635 5636 5637 5638 5640 5641 5643 5644 5645 5645 5646 5647 5647 5649 5650 5650 5651 5653 5656 5658 5660 5662 5664 5666 5669 5672 5674 5676 5678 5679 5680 5681 5682 5683 5684 5687 5688 5689 5690 5691 5692 5693 5695 5696 5697 5699 5700 5700 5700 5701